Flag Weather past 2 weeks in Sion, Valais, Switzerland

Now
45 °F

Cool.


Feels Like: 45 °F
Forecast: 46 / 64 °F
Wind: 2 mph from West

Location: Sion

Current Time: Nov 23, 2014 at 11:52:24 PM

Latest Report: Nov 23, 2014 at 11:00 PM


Visibility: N/A

Pressure: 30.26 "Hg

Humidity: 84%

Dew point: 40 °F

Location of SionLocation

Historic Weather in Sion — Graph

°F

Sion temperature yesterday

Maximum temperature yesterday: 55 °F (at 1:00 PM)
Minimum temperature yesterday: 35 °F (at 6:00 AM)
Average temperature yesterday: 42 °F

Past Weeks' High & Low Weather Summary

 TemperatureHumidityPressure
High65 °F (Nov 11, 2:00 PM)100% (Nov 16, 1:00 AM)30.36 "Hg (Nov 16, 1:00 AM)
Low34 °F (Nov 19, 6:00 AM)38% (Nov 11, 2:00 PM)29.58 "Hg (Nov 15, 4:00 PM)
Average45 °F82%29.93 "Hg
* Reported Nov 8 10:00 PM — Nov 23 10:00 PM, Sion, Weather by CustomWeather, © 2014

Note: Actual official high and low records may vary slightly from our data, if they occured in-between our weather recording intervals... More about our weather records

Advertising

Sion weather history for previous 24 hours

 ConditionsComfort  
Time TempWeatherWind HumidityBarometerVisibility
10:00 PM
Nov 23
49 °FOvercast.1 mph73%30.24 "Hg12 mi
9:00 PM46 °FCool.2 mph79%30.24 "HgN/A
8:00 PM48 °FCool.2 mph74%30.22 "HgN/A
7:00 PM50 °FOvercast.No wind68%30.21 "Hg14 mi
6:00 PM50 °FCool.3 mph70%30.20 "HgN/A
5:00 PM53 °FCool.2 mph64%30.19 "HgN/A
4:00 PM56 °FOvercast.3 mph53%30.17 "Hg16 mi
3:00 PM58 °FRefreshingly cool.1 mph51%30.18 "HgN/A
2:00 PM57 °FRefreshingly cool.1 mph53%30.19 "HgN/A
1:00 PM57 °FRefreshingly cool.1 mph51%30.22 "HgN/A
12:00 PM54 °FCool.3 mph55%30.24 "HgN/A
11:00 AM49 °FCool.2 mph68%30.28 "HgN/A
10:00 AM46 °FCool.5 mph72%30.29 "HgN/A
9:00 AM42 °FQuite cool.2 mph84%30.30 "HgN/A
8:00 AM39 °FChilly.1 mph87%30.29 "HgN/A
7:00 AM40 °FQuite cool.3 mph85%30.27 "HgN/A
6:00 AM41 °FQuite cool.5 mph82%30.27 "HgN/A
5:00 AM36 °FChilly.3 mph93%30.29 "HgN/A
4:00 AM37 °FClear.No wind92%30.28 "Hg16 mi
3:00 AM37 °FChilly.1 mph94%30.29 "HgN/A
2:00 AM39 °FChilly.2 mph91%30.27 "HgN/A
1:00 AM38 °FClear.1 mph92%30.28 "Hg14 mi
12:00 AM40 °FQuite cool.3 mph89%30.26 "HgN/A
11:00 PM
Nov 22
40 °FQuite cool.2 mph91%30.26 "HgN/A
Weather by CustomWeather, © 2014

See weather overviewHow to use our weather pages